Location: Haliburton Scout Reserve
(45.0900°N, 78.3200°W)
Time: 02:26:16
(UTC-04:00)

ESTCUBE 1 - Pass Details

Date: 20 May 2022
Orbit: 644 x 659 km, 97.9° (Epoch: 27 June)

Event Time Altitude Azimuth Distance (km) Brightness Sun altitude
Exits shadow 22:54:48 33° 124° (SE) 1,094 ? -17.9°
Maximum altitude 22:56:23 49° 72° (ENE) 848 ? -18.0°
Drops below altitude 10° 23:00:44 10° 358° (N) 2,070 ? -18.4°
Sets 23:03:00 0° 353° (N) 2,983 ? -18.6°
